Location: Arrington
(35.8681°N, 86.7092°W)
Time: 18:07:41
(UTC+00:00)

COSMOS 2455 - Pass Details

Date: 23 November 2019
Orbit: 902 x 908 km, 67.1° (Epoch: 15 December)

Event Time Altitude Azimuth Distance (km) Brightness Sun altitude
Rises 01:07:11 0° 229° (SW) 3,519 6.7 -30.4°
Reaches altitude 10° 01:09:53 10° 238° (WSW) 2,582 5.9 -31.0°
Maximum altitude 01:15:22 36° 304° (NW) 1,394 4.1 -32.1°
Enters shadow 01:17:21 29° 341° (NNW) 1,603 4.2 -32.5°
